Weather History for Perry, IA

Change the Weather History Date:

Wednesday, November 19, 2014

  Actual Average Record
Temperature  
Mean Temperature 24 °F -  
Max Temperature 30 °F 46 °F 67 °F (1975)
Min Temperature 18 °F 27 °F 6 °F (1989)
Degree Days  
Heating Degree Days 41    
Moisture  
Dew Point 18 °F    
Average Humidity 75    
Maximum Humidity 84    
Minimum Humidity 66    
Precipitation  
Precipitation 0.00 in - - ()
Sea Level Pressure  
Sea Level Pressure 30.00 in    
Wind  
Wind Speed 14 mph (WNW)    
Max Wind Speed 28 mph    
Max Gust Speed 38 mph    
Visibility 10 miles    
Events Snow    
Averages and records for this station are not official NWS values.
T = Trace of Precipitation, MM = Missing Value Source: NWS Daily Summary

Daily Weather History Graph

Daily Weather History Graph

Search for Another Location

Airport:

Trip Planner

Search our weather history database for the weather conditions in past years. The results will help you decide how hot, cold, wet, or windy it might be!

Date:

Astronomy

Nov. 19, 2014 Rise Set
Actual Time 7:10 AM CST 4:52 PM CST
Civil Twilight 6:40 AM CST 5:22 PM CST
Nautical Twilight 6:06 AM CST 5:56 PM CST
Astronomical Twilight 5:33 AM CST 6:29 PM CST
Moon 4:04 AM CST (11/19) 3:23 PM CST (11/19)
Length of Visible Light 10h 42m
Length of Day
9h 41m
Waning Crescent, 8% of the Moon is Illuminated
Nov 19
Waning Crescent
Nov 22
New
Nov 29
First Quarter
Dec 6
Full
Dec 14
Last Quarter

Hourly Weather History & Observations

Time (CST) Temp. Windchill Dew Point Humidity Pressure Visibility Wind Dir Wind Speed Gust Speed Precip Events Conditions
12:15 AM 27.5 °F 19.3 °F 21.0 °F 77% 29.77 in 10.0 mi SSW 8.1 mph - N/A   Mostly Cloudy
12:35 AM 25.5 °F 16.2 °F 19.8 °F 79% 29.77 in 10.0 mi SW 9.2 mph - N/A   Scattered Clouds
12:55 AM 23.9 °F 14.2 °F 18.7 °F 80% 29.77 in 10.0 mi SW 9.2 mph - N/A   Clear
1:15 AM 22.1 °F 12.0 °F 18.0 °F 84% 29.76 in 10.0 mi WSW 9.2 mph - N/A   Clear
1:35 AM 24.8 °F 14.0 °F 19.4 °F 80% 29.76 in 10.0 mi West 11.5 mph - N/A   Clear
1:55 AM 24.8 °F 12.9 °F 19.8 °F 81% 29.77 in 10.0 mi West 13.8 mph - N/A   Clear
2:15 AM 26.6 °F 13.4 °F 20.7 °F 78% 29.78 in 10.0 mi WNW 18.4 mph 25.3 mph N/A   Clear
2:35 AM 26.4 °F 15.0 °F 20.5 °F 78% 29.80 in 10.0 mi WNW 13.8 mph - N/A   Scattered Clouds
2:55 AM 26.2 °F 15.8 °F 20.8 °F 80% 29.81 in 10.0 mi WNW 11.5 mph - N/A   Mostly Cloudy
3:15 AM 27.9 °F 16.8 °F 22.1 °F 79% 29.81 in 10.0 mi NW 13.8 mph 21.9 mph N/A   Overcast
3:35 AM 29.1 °F 19.4 °F 22.6 °F 77% 29.82 in 10.0 mi NW 11.5 mph - N/A   Overcast
3:55 AM 28.9 °F 20.4 °F 23.0 °F 78% 29.83 in 10.0 mi WNW 9.2 mph - N/A   Overcast
4:15 AM 28.8 °F 19.5 °F 23.4 °F 80% 29.84 in 10.0 mi WNW 10.4 mph - N/A   Overcast
4:35 AM 29.3 °F 19.6 °F 23.7 °F 80% 29.85 in 10.0 mi WNW 11.5 mph 17.3 mph N/A   Overcast
4:55 AM 30.2 °F 19.8 °F 23.7 °F 77% 29.86 in 10.0 mi NW 13.8 mph 27.6 mph N/A   Overcast
5:15 AM 29.1 °F 14.2 °F 20.7 °F 71% 29.88 in 10.0 mi NW 27.6 mph 38.0 mph N/A   Overcast
5:35 AM 27.7 °F 14.8 °F 20.3 °F 74% 29.89 in 10.0 mi WNW 18.4 mph 28.8 mph N/A   Overcast
5:55 AM 27.3 °F 14.4 °F 19.4 °F 72% 29.89 in 10.0 mi NW 18.4 mph 31.1 mph N/A   Overcast
6:15 AM 26.4 °F 11.8 °F 18.5 °F 72% 29.90 in 10.0 mi NW 23.0 mph 31.1 mph N/A   Overcast
6:35 AM 25.7 °F 10.8 °F 18.1 °F 73% 29.91 in 10.0 mi NW 23.0 mph 32.2 mph N/A   Overcast
6:55 AM 24.6 °F 9.7 °F 18.3 °F 77% 29.93 in 7.0 mi NNW 21.9 mph 27.6 mph N/A Snow Light Snow
7:15 AM 23.9 °F 10.8 °F 18.7 °F 80% 29.94 in 10.0 mi NW 16.1 mph 26.5 mph N/A   Overcast
7:35 AM 23.5 °F 9.0 °F 16.2 °F 73% 29.96 in 7.0 mi NW 19.6 mph 38.0 mph N/A Snow Light Snow
7:55 AM 23.4 °F 8.1 °F 14.9 °F 70% 29.97 in 10.0 mi NW 21.9 mph 32.2 mph N/A   Overcast
8:15 AM 23.4 °F 10.6 °F 16.0 °F 73% 29.98 in 10.0 mi NW 15.0 mph - N/A   Overcast
8:35 AM 23.5 °F 10.8 °F 16.7 °F 75% 29.99 in 10.0 mi NW 15.0 mph - N/A   Overcast
8:55 AM 23.7 °F 11.0 °F 17.4 °F 77% 30.00 in 10.0 mi NW 15.0 mph 20.7 mph N/A Snow Light Snow
9:15 AM 23.9 °F 11.7 °F 17.6 °F 77% 30.01 in 10.0 mi WNW 13.8 mph - N/A Snow Light Snow
9:35 AM 23.9 °F 9.5 °F 18.3 °F 79% 30.02 in 7.0 mi NW 19.6 mph 25.3 mph N/A Snow Light Snow
9:55 AM 23.5 °F 8.7 °F 16.0 °F 73% 30.04 in 10.0 mi NW 20.7 mph 26.5 mph N/A   Overcast
10:15 AM 23.2 °F 8.2 °F 15.8 °F 73% 30.05 in 10.0 mi NNW 20.7 mph 29.9 mph N/A Snow Light Snow
10:35 AM 23.4 °F 9.6 °F 15.1 °F 71% 30.05 in 10.0 mi NNW 17.3 mph 26.5 mph N/A   Overcast
10:55 AM 23.2 °F 9.8 °F 15.8 °F 73% 30.06 in 7.0 mi NW 16.1 mph 25.3 mph N/A Snow Light Snow
11:15 AM 23.9 °F 9.1 °F 15.4 °F 70% 30.06 in 10.0 mi NW 20.7 mph 28.8 mph N/A Snow Light Snow
11:35 AM 23.9 °F 9.1 °F 15.3 °F 70% 30.06 in 10.0 mi NW 20.7 mph 27.6 mph N/A Snow Light Snow
11:55 AM 23.9 °F 11.2 °F 15.6 °F 71% 30.06 in 10.0 mi NW 15.0 mph - N/A   Overcast
12:15 PM 24.3 °F 12.2 °F 16.3 °F 72% 30.07 in 10.0 mi NW 13.8 mph 19.6 mph N/A   Overcast
12:35 PM 24.4 °F 11.9 °F 15.8 °F 70% 30.07 in 10.0 mi NW 15.0 mph 25.3 mph N/A   Overcast
12:55 PM 24.8 °F 12.9 °F 16.5 °F 71% 30.06 in 10.0 mi NW 13.8 mph - N/A   Overcast
1:15 PM 24.8 °F 14.0 °F 16.5 °F 71% 30.06 in 10.0 mi NW 11.5 mph 17.3 mph N/A Snow Light Snow
1:35 PM 25.2 °F 13.3 °F 17.4 °F 72% 30.06 in 10.0 mi WNW 13.8 mph 25.3 mph N/A   Overcast
1:55 PM 25.3 °F 12.6 °F 17.2 °F 71% 30.06 in 10.0 mi NW 16.1 mph 21.9 mph N/A   Overcast
2:15 PM 25.2 °F 11.2 °F 18.1 °F 75% 30.06 in 10.0 mi WNW 19.6 mph 24.2 mph N/A   Overcast
2:35 PM 25.7 °F 14.0 °F 18.9 °F 75% 30.06 in 10.0 mi WNW 13.8 mph 17.3 mph N/A   Overcast
2:55 PM 25.5 °F 13.3 °F 17.8 °F 72% 30.06 in 10.0 mi WNW 15.0 mph 23.0 mph N/A   Overcast
3:15 PM 25.5 °F 13.8 °F 19.2 °F 77% 30.06 in 10.0 mi WNW 13.8 mph 24.2 mph N/A   Overcast
3:35 PM 25.5 °F 12.9 °F 16.9 °F 70% 30.07 in 10.0 mi WNW 16.1 mph - N/A   Overcast
3:55 PM 25.5 °F 13.8 °F 16.2 °F 68% 30.07 in 10.0 mi WNW 13.8 mph 23.0 mph N/A   Overcast
4:15 PM 25.3 °F 12.6 °F 15.6 °F 67% 30.07 in 10.0 mi WNW 16.1 mph 26.5 mph N/A   Overcast
4:35 PM 25.2 °F 12.4 °F 15.3 °F 66% 30.08 in 10.0 mi WNW 16.1 mph 24.2 mph N/A   Overcast
4:55 PM 24.8 °F 11.5 °F 16.5 °F 71% 30.09 in 10.0 mi WNW 17.3 mph 24.2 mph N/A   Overcast
5:15 PM 24.4 °F 11.9 °F 17.6 °F 75% 30.10 in 7.0 mi WNW 15.0 mph 21.9 mph N/A Snow Light Snow
5:35 PM 23.7 °F 12.1 °F 17.2 °F 76% 30.10 in 10.0 mi WNW 12.7 mph - N/A   Overcast
5:55 PM 23.9 °F 12.3 °F 16.5 °F 73% 30.11 in 10.0 mi WNW 12.7 mph - N/A   Overcast
6:15 PM 23.9 °F 12.9 °F 16.2 °F 72% 30.11 in 10.0 mi WNW 11.5 mph 18.4 mph N/A   Overcast
6:35 PM 24.1 °F 12.0 °F 16.2 °F 72% 30.11 in 10.0 mi WNW 13.8 mph 19.6 mph N/A   Overcast
6:55 PM 23.7 °F 12.6 °F 16.3 °F 73% 30.12 in 10.0 mi WNW 11.5 mph - N/A   Mostly Cloudy
7:15 PM 21.7 °F 10.8 °F 15.6 °F 77% 30.12 in 10.0 mi WNW 10.4 mph - N/A   Scattered Clouds
7:55 PM 18.9 °F 6.5 °F 13.1 °F 78% 30.12 in 10.0 mi West 11.5 mph - N/A   Clear
8:15 PM 19.2 °F 5.8 °F 13.5 °F 78% 30.12 in 10.0 mi West 13.8 mph - N/A   Scattered Clouds
8:35 PM 20.3 °F 9.0 °F 13.8 °F 76% 30.12 in 10.0 mi West 10.4 mph 16.1 mph N/A   Mostly Cloudy
8:55 PM 20.5 °F 10.0 °F 13.6 °F 75% 30.12 in 10.0 mi West 9.2 mph - N/A   Overcast
9:15 PM 20.3 °F 9.0 °F 14.0 °F 77% 30.12 in 10.0 mi West 10.4 mph - N/A   Overcast
9:35 PM 21.4 °F 9.7 °F 15.1 °F 77% 30.12 in 10.0 mi West 11.5 mph - N/A   Overcast
9:55 PM 22.1 °F 11.3 °F 15.6 °F 76% 30.12 in 10.0 mi West 10.4 mph - N/A   Overcast
10:15 PM 21.7 °F 12.3 °F 15.8 °F 78% 30.12 in 10.0 mi West 8.1 mph - N/A   Overcast
10:35 PM 21.9 °F 11.7 °F 16.7 °F 80% 30.12 in 10.0 mi West 9.2 mph - N/A   Overcast
10:55 PM 23.0 °F 11.7 °F 17.1 °F 78% 30.12 in 10.0 mi West 11.5 mph - N/A   Overcast
11:15 PM 23.7 °F 14.0 °F 17.4 °F 77% 30.12 in 10.0 mi WNW 9.2 mph - N/A   Overcast
11:35 PM 24.4 °F 12.4 °F 17.6 °F 75% 30.13 in 10.0 mi WNW 13.8 mph 19.6 mph N/A   Overcast
11:55 PM 24.8 °F 13.4 °F 17.8 °F 75% 30.13 in 10.0 mi WNW 12.7 mph 17.3 mph N/A   Overcast